OBJECT Y, 62399

Orbit data source: Space-Track

You're viewing an Uncataloged Satellite

Recently launched and/or uncataloged satellites may have evolving metadata. Metadata may include but not limited to: Owner, Maufacturer, Bus, Motor, and Mission.

OBJECT Y, 62399 is a satellite in LEO that was launched on Sat, 21 Dec 2024 UTC via an FALCON 9 launch vehicle from the Air Force Western Test Range (AFWTR). Unknown objects in Earth's orbit typically refer to objects detected orbiting the Earth but have not yet been identified or cataloged. These objects could be anything from previously untracked satellites, spent rocket stages, debris from satellite collisions, or even natural meteoroids temporarily captured by Earth's gravity.

Loading next visibility...
Identifier
62399, 2024-247Y
Orbit
LEO
Country
Flag of TBDTBD
Related business
None
Manufacturer
Unknown
Mission
Operational Commercial Communications
Bus & Motor
Unknown
Mass
Unknown
Launch date (UTC)
2024-12-21 (1 year ago)
Launch vehicle
FALCON 9
Launch site
Air Force Western Test Range (AFWTR)
Object type
Unknown
Shape & HBR
Box, 0.0 m
Radar Cross Section
0.004 m², Small (<0.1 m²)

Expand to show TLE details & history
Last TLE update: 1 day ago

TLE from 1 day ago
0 OBJECT Y
1 62399U 24247Y   26036.01527748  .00038403  00000-0  95170-3 0  9992
2 62399  44.9987 275.7413 0008811 171.6485 188.4551 15.39779074 62979
Epoch: 2026-02-05T00:21Z
TLE epoch observation values (Epoch: 2026-02-05T00:21:59.974Z)
Latitude
0.00001°
Longitude
135.06784°
Altitude
452.708 km
Speed
7.639 km/s
True Right ascension
18h 22m 57s
True Declination
0° 00' 00"
Sunlit
Object was in daylight at epoch
Visualization orbit readout
Latitude
Unknown
Longitude
Unknown
Altitude
Unknown
Speed
Unknown
Apparent Right ascension
Unknown
Apparent Declination
Unknown
Sunlit
N/A
Visualization observer readout
Local Sidereal Time
08:21:07
Azimuth
Unknown
Elevation
Unknown
Doppler factor
Unknown
Orbital elements
Apogee altitude
454.395 km
Perigee altitude
442.365 km
Semi-major axis
6,826.517 km
Eccentricity
0.00088
Inclination
44.9987°
RAAN
275.7413°
Arg. of periapsis
171.6485°
True anomaly
188.44027°
Mean anomaly
188.4551°
Eccentric anomaly
188.44768°
Mean motion
3.84808 °/min
Orbital period
93.55 mins
BSTAR
0.0009517
Loading maneuver chart data...
Computing Atmospheric mass density...
Loading historical data...
Loading historical data...
Loading historical data...
Loading historical data...
Loading historical data...
Loading historical data...
Loading historical data...

Documentation

Showing up to 5 results
|